Hourly Data Report for October 10, 2014

All times are specified in Local Standard Time (LST). Add 1 hour to adjust for Daylight Saving Time where and when it is observed.

MONCTON INTL A
NEW BRUNSWICK

46°06'44.000" N
64°40'43.000" W
70.70 m
8103201
71705
YQM

Download Data

Hourly Data (October 2014)
Hourly Data Report for October 10, 2014
Temp Definition
°C
Dew Point Temp Definition
°C
Rel Hum Definition
%
Wind Dir Definition
10's deg

Wind Spd Definition
km/h
Visibility Definition
km
Stn Press Definition
kPa
Hmdx Definition


Wind Chill Definition


Weather Definition


TIME
00:00 Legend Double Dagger 7.0 3.6 79 21 14 24.1 100.00     LegendNANA
01:00 Legend Double Dagger 6.9 3.5 79 21 14 24.1 100.00     LegendNANA
02:00 Legend Double Dagger 7.2 2.9 74 23 20 24.1 100.05     Clear
03:00 Legend Double Dagger 6.2 1.9 74 20 15 24.1 100.05     LegendNANA
04:00 Legend Double Dagger 6.5 2.2 74 23 20 24.1 100.10     LegendNANA
05:00 Legend Double Dagger 6.1 1.5 72 22 18 24.1 100.12     Mainly Clear
06:00 Legend Double Dagger 5.8 1.0 71 22 25 24.1 100.14     LegendNANA
07:00 Legend Double Dagger 5.9 0.7 69 23 22 24.1 100.20     LegendNANA
08:00 Legend Double Dagger 7.7 0.7 61 23 28 24.1 100.23     Clear
09:00 Legend Double Dagger 9.3 1.0 56 23 39 24.1 100.23     LegendNANA
10:00 Legend Double Dagger 10.8 2.2 55 25 36 24.1 100.26     LegendNANA
11:00 Legend Double Dagger 12.1 2.1 50 23 34 24.1 100.27     Clear
12:00 Legend Double Dagger 13.3 3.2 50 23 35 24.1 100.25     LegendNANA
13:00 Legend Double Dagger 14.4 3.6 48 22 30 24.1 100.23     LegendNANA
14:00 Legend Double Dagger 15.3 4.1 47 24 26 24.1 100.22     Mainly Clear
15:00 Legend Double Dagger 15.3 3.8 46 25 28 24.1 100.26     LegendNANA
16:00 Legend Double Dagger 14.7 3.6 47 24 31 24.1 100.28     LegendNANA
17:00 Legend Double Dagger 13.6 3.7 51 23 19 24.1 100.36     Mainly Clear
18:00 Legend Double Dagger 12.4 4.4 58 22 13 24.1 100.46     LegendNANA
19:00 Legend Double Dagger 11.5 4.8 63 19 11 24.1 100.55     LegendNANA
20:00 Legend Double Dagger 10.7 5.1 68 21 16 24.1 100.60     Mostly Cloudy
21:00 Legend Double Dagger 9.2 4.8 74 21 12 24.1 100.66     LegendNANA
22:00 Legend Double Dagger 7.6 4.4 80 24 13 24.1 100.68     LegendNANA
23:00 Legend Double Dagger 6.5 4.0 84 23 13 24.1 100.73     Clear

Notes on Data Quality.

Legend

  • E = Estimated
  • M = Missing
  • NA = Not Available
  • ‡ = Partner data that is not subject to review by the National Climate Archives
Date modified: